Location: Emilia
(51.9214°N, 19.3624°E)
Time: 11:07:48
(UTC+00:00)

Daily predictions for brighter satellites

Satellite Brightness Start Highest point End
(mag) Time Altitude Azimuth Time Altitude Azimuth Time Altitude Azimuth
Cosmos 1842 Rocket 3.6 19:20:01 10° N 19:24:32 82° E 19:29:02 10° SSE
Cosmos 2151 4.3 19:22:10 10° SE 19:25:29 23° E 19:28:49 10° NE
Cosmos 2322 Rocket 3.8 19:20:48 10° NNW 19:25:30 26° NE 19:30:10 10° E
ERS-1 Rocket 3.7 19:21:44 10° SE 19:26:24 40° ENE 19:31:06 10° N
Spot 2 Rocket 3.8 19:21:50 10° SE 19:26:50 56° ENE 19:31:51 10° N
CZ-4C R/B 3.5 19:23:12 10° WSW 19:28:19 48° NNW 19:34:37 10° NE
Cosmos 2058 2.9 19:29:16 10° S 19:33:27 88° ESE 19:37:41 10° N
USA-17 4.2 19:35:42 10° SW 19:39:21 82° SE 19:42:27 10° NE
Cosmos 1825 3.1 19:36:52 10° SSW 19:40:31 51° WNW 19:44:13 10° N
NOSS 7 (H) 4.2 19:38:02 10° SW 19:41:18 79° NW 19:44:12 10° NE
Cosmos 1076 Rocket 3.8 19:37:41 10° S 19:41:53 52° E 19:46:08 10° NNE
Cosmos 2098 Rocket 2.5 19:42:10 10° S 19:45:01 47° E 19:48:15 10° NNE
Resurs 01 Rocket 2.7 19:41:12 10° S 19:45:26 43° W 19:49:42 10° NNW
SL-16 R/B 3.1 19:45:25 10° NNW 19:50:47 40° NE 19:56:06 10° ESE
SPOT 1/Viking Rocket 3.9 19:47:16 10° S 19:52:25 67° WSW 19:57:39 10° NNW
USA 234 3.5 19:46:05 10° ESE 19:52:37 73° NNE 19:59:09 10° WNW
Cosmos 2219 Rocket 4.5 19:49:50 10° NNW 19:53:20 16° NNE 19:56:49 10° ENE
BREEZE-M DEB (TANK) 3.1 19:44:38 10° W 19:54:26 67° S 19:57:36 10° E
USA 245 4.3 19:55:20 10° S 20:00:52 67° WSW 20:05:29 10° NNW
BREEZE-M DEB (TANK) 3.0 19:59:28 10° W 20:02:22 42° SSW 20:09:03 11° SE
RESURS DK-1 2.7 19:58:38 10° S 20:02:36 46° ESE 20:06:36 10° NE
Cosmos 44 Rocket 3.4 19:59:05 10° SSW 20:04:14 65° SE 20:09:27 10° NE
Cosmos 1271 Rocket 3.3 20:00:34 10° N 20:04:24 47° ENE 20:07:34 15° SE
CZ-3B R/B 4.0 19:44:20 10° W 20:05:11 74° N 20:09:49 10° E
Cosmos 304 Rocket 4.0 20:05:43 10° NNW 20:10:30 64° ENE 20:14:26 15° SE
SPOT 5 2.6 20:07:14 12° SSE 20:11:14 88° ENE 20:15:37 10° NNW
ARIANE 5 R/B 2.8 20:08:22 10° S 20:12:51 74° WSW 20:17:20 10° NNW
CZ-2C R/B 3.9 20:08:49 10° NNE 20:13:25 75° WNW 20:17:55 10° SSW
Cosmos 1933 3.3 20:10:19 10° N 20:14:24 78° ENE 20:17:46 15° SSE
Cosmos 1697 Rocket 4.1 20:11:26 10° NW 20:16:23 32° WSW 20:21:18 10° SSW
Cosmos 1633 3.0 20:14:41 10° SSW 20:18:15 61° WNW 20:21:51 10° N
Cosmos 2221 4.4 20:19:22 10° NNW 20:22:59 27° W 20:26:35 10° SW
ISS -3.7 20:20:11 10° W 20:23:32 60° SSW 20:25:51 18° ESE
Cosmos 2278 4.1 20:18:21 10° NW 20:23:54 59° WSW 20:28:45 14° S
Cosmos 2195 Rocket 4.5 20:18:57 10° S 20:25:02 70° E 20:31:08 10° NNE
Cosmos 371 Rocket 3.7 20:21:46 10° NNW 20:26:30 59° WSW 20:30:30 14° S
Cosmos 2082 Rocket 2.2 20:21:40 10° SSW 20:27:19 88° ESE 20:33:01 10° NNE
CARTOSAT-1 4.4 20:23:29 10° S 20:27:38 45° W 20:31:49 10° NNW
Cosmos 1833 Rocket 3.6 20:26:18 10° SW 20:31:49 52° NW 20:37:20 10° NNE
Terra 1.9 20:29:10 15° SSE 20:33:05 82° WSW 20:37:53 10° NNW
Cosmos 2333 Rocket 3.9 20:29:06 10° NNW 20:33:51 26° NE 20:38:32 10° E
ATLAS 5 CENTAUR R/B 4.0 20:30:40 10° NW 20:34:44 25° NNE 20:39:25 10° ENE
Cosmos 2056 Rocket 4.3 20:29:49 10° NNW 20:34:59 43° NE 20:39:04 15° ESE
Gbstr 26 Del rocket 2.7 20:31:18 10° W 20:35:04 70° SSW 20:38:22 15° ESE
Gblst 52 Del rocket 4.4 20:29:49 10° WSW 20:35:48 83° S 20:42:41 10° E
BREEZE-M DEB (TANK) 4.2 20:32:24 10° SW 20:36:57 58° SSE 20:55:15 10° ENE
Cosmos 1092 Rocket 4.0 20:31:30 10° S 20:37:45 87° E 20:44:06 10° N
NOSS 3-4 (A) 4.3 20:35:23 10° WSW 20:41:13 55° NNW 20:47:37 10° NE
NOSS 3-4 (C) 4.3 20:35:29 10° WSW 20:41:18 55° NNW 20:47:44 10° NE
Cosmos 2360 Rocket 3.0 20:36:05 10° NNW 20:41:29 44° NE 20:46:03 14° ESE
USA 276 2.1 20:39:58 10° W 20:43:05 56° S 20:44:46 23° ESE
ATLAS 2AS CENTAUR R/B 3.2 20:42:21 10° SW 20:50:17 77° NW 20:57:57 10° NE
Cosmos 1862 4.2 20:49:36 23° SE 20:51:22 34° E 20:55:00 10° NNE
ALOS 2 4.3 20:49:18 13° ESE 20:52:10 23° ENE 20:55:39 10° N
Cosmos 1766 Rocket 3.6 20:50:20 21° S 20:53:13 62° E 20:57:35 10° NNE
Meteor 2-3 Rocket 3.8 20:47:44 10° SSW 20:53:23 82° WNW 20:59:09 10° NNE
Cosmos 1371 Rocket 4.3 20:50:42 10° NNW 20:56:03 64° ENE 20:59:38 21° SE
Cosmos 1812 2.7 20:53:19 10° N 20:57:12 69° ENE 20:59:11 27° SSE
Cosmos 2026 Rocket 4.1 20:51:04 10° S 20:57:25 84° W 21:03:46 10° N
Cosmos 1782 3.2 20:54:19 10° NNW 20:58:19 61° W 21:00:54 20° S
USA 267 3.3 20:53:17 10° ENE 20:59:45 58° SE 21:06:11 10° SW
GP-B 4.1 20:56:40 10° N 21:00:54 44° W 21:05:05 10° SSW
Cosmos 332 Rocket 4.4 20:56:59 10° NW 21:01:41 48° WSW 21:04:54 19° S
Cosmos 1980 Rocket 3.7 20:57:41 10° NW 21:02:17 27° WSW 21:06:48 10° SSW
Cosmos 2151 4.0 20:58:28 10° SW 21:02:31 43° WNW 21:06:37 10° N
Cosmos 1680 Rocket 3.8 20:59:27 21° S 21:02:44 48° ESE 21:07:47 10° NE
Cosmos 1328 Rocket 3.5 20:58:44 10° N 21:03:14 89° W 21:05:52 24° S
ERS-1 Rocket 4.2 21:00:53 11° SSW 21:05:16 35° W 21:09:52 10° NNW
ATLAS 3B R/B 3.5 20:59:27 10° NW 21:06:02 42° WSW 21:11:03 18° S
SL-27 R/B 4.1 21:09:40 20° ESE 21:09:55 20° E 21:12:35 10° NE
Cosmos 2322 Rocket 2.2 21:04:35 10° NNW 21:10:17 85° WSW 21:13:48 24° SSE
Cosmos 1151 Rocket 3.5 21:10:26 10° NNW 21:14:40 54° W 21:17:20 21° SSW
CZ-4C R/B 4.5 21:13:09 10° WNW 21:18:19 30° N 21:24:28 10° ENE
Meteor 2-6 Rocket 4.1 21:12:58 10° NNW 21:18:28 83° W 21:21:47 24° S
BREEZE-M DEB (TANK) 3.7 21:18:49 10° WSW 21:19:23 17° WSW 21:19:23 17° WSW
Okean 3 Rocket 3.7 21:20:48 20° SSW 21:23:51 73° WNW 21:28:23 10° N
Meteor 2-21 4.4 21:19:40 19° S 21:24:20 88° E 21:30:33 10° NNE
Cosmos 158 Rocket 4.4 21:20:16 10° SW 21:25:21 63° WNW 21:30:37 10° NNE
Cosmos 2237 4.2 21:23:27 10° NNW 21:29:11 81° WSW 21:32:28 27° SSE
Meteor 1-27 Rocket 3.9 21:24:05 10° N 21:29:39 63° ENE 21:32:53 26° SSE
Cosmos 1553 Rocket 4.3 21:24:42 10° NNW 21:30:41 61° W 21:34:50 21° SSW
H-2A R/B 4.0 21:26:51 10° N 21:30:58 57° WNW 21:34:06 17° SW
COSMOS 2428 3.8 21:26:16 10° NNW 21:31:38 39° NE 21:36:25 13° ESE
SL-16 R/B 2.8 21:29:35 10° NW 21:35:01 47° WSW 21:38:08 24° S
USA 234 3.4 21:31:41 23° SSE 21:35:49 57° SW 21:42:17 10° WNW
Cosmos 1655 Rocket 4.0 21:33:14 24° S 21:37:17 75° E 21:43:41 10° NNE
Cosmos 1624 Rocket 4.0 21:33:09 10° NNW 21:38:21 71° WSW 21:41:01 29° S
Cosmos 2219 Rocket 2.9 21:33:17 10° NNW 21:38:44 48° NE 21:42:49 17° ESE
Cosmos 1500 Rocket 3.9 21:37:08 32° SSE 21:38:49 52° E 21:43:07 10° NNE
RESURS DK-1 4.4 21:37:09 10° WSW 21:40:48 29° NW 21:44:28 10° NNE
Cosmos 292 Rocket 3.7 21:37:25 10° NNW 21:42:13 80° ENE 21:44:32 31° SSE
Cosmos 2266 Rocket 4.0 21:39:17 25° S 21:42:57 73° E 21:49:09 10° NNE
Meteor 1-10 Rocket 4.3 21:40:30 10° NNW 21:46:03 67° W 21:49:09 27° S
Spot 4 3.9 21:45:55 31° S 21:48:15 75° WSW 21:53:06 10° NNW
Cosmos 2228 Rocket 3.1 21:46:27 10° N 21:50:52 69° ENE 21:52:40 34° SSE
Cosmos 1420 Rocket 4.0 21:48:20 10° NNW 21:53:41 78° WSW 21:56:18 31° SSE
COSMOS 2455 3.9 21:52:02 23° SE 21:53:45 26° ESE 21:58:39 10° NE
Cosmos 883 Rocket 4.5 21:49:39 10° N 21:55:52 85° W 21:59:25 28° S
Cosmos 1743 Rocket 3.5 21:54:56 35° S 21:56:47 76° E 22:01:15 10° NNE
Meteor 2-16 Rocket 4.4 21:53:49 24° SSW 21:57:44 82° W 22:03:52 10° N
S3M 4.4 21:51:39 10° NNW 21:57:53 58° W 22:01:50 23° SSW
Cosmos 1408 Rocket 3.9 21:57:11 25° SSW 21:59:35 59° WNW 22:03:54 10° N
ISS -1.7 21:57:27 10° W 21:58:48 16° WSW 21:58:48 16° WSW
Cosmos 1452 Rocket 3.5 22:02:52 10° NNW 22:08:10 78° ENE 22:10:50 30° SSE
COBE Rocket 4.5 22:06:55 27° SSW 22:09:02 43° W 22:13:29 10° NNW
Cosmos 1515 4.1 22:05:50 10° N 22:09:33 51° ENE 22:10:39 37° SE
Cosmos 972 Rocket 4.4 22:07:27 31° SSE 22:09:43 50° ESE 22:14:40 10° NNE
Terra 4.2 22:09:31 10° WSW 22:11:37 13° W 22:13:42 10° WNW
Cosmos 2082 Rocket 4.4 22:07:31 10° W 22:12:09 25° NW 22:16:50 10° NNE
Cosmos 1633 Rocket 4.4 22:12:50 23° ESE 22:14:13 28° E 22:17:56 10° NNE
NOSS 3-1 (C) 4.0 22:08:18 10° NW 22:15:35 83° SW 22:21:57 20° SE
Cosmos 2056 Rocket 4.4 22:12:09 10° NW 22:17:05 37° WSW 22:19:23 25° SSW
Cosmos 2333 Rocket 2.1 22:13:07 10° NNW 22:18:50 85° WSW 22:21:43 30° SSE
USA 276 4.4 22:16:17 10° W 22:16:59 14° WSW 22:16:59 14° WSW
NOSS 2-1 (E) 2.8 22:19:06 56° SE 22:19:16 57° SE 22:22:44 10° NE
Sich 1 3.2 22:17:56 38° SSE 22:19:23 59° E 22:23:41 10° NNE
ATLAS 5 CENTAUR R/B 2.8 22:15:12 10° NW 22:20:20 56° NE 22:26:28 10° ESE
Gbstr 26 Del rocket 4.2 22:18:10 10° W 22:20:51 24° SW 22:20:51 24° SW
Cosmos 1833 4.2 22:19:19 28° SSW 22:22:28 75° ESE 22:28:16 10° NNE
Okean 1 3.7 22:18:51 10° N 22:22:50 54° ENE 22:24:11 36° SE
Cosmos 2360 Rocket 2.8 22:20:13 10° NW 22:25:29 42° WSW 22:27:48 28° SSW
USA 229 DEB 3.9 22:19:43 10° NW 22:26:58 83° NE 22:33:46 14° SE
USA 229 3.9 22:19:48 10° NW 22:27:04 82° NE 22:33:55 14° SE
Cosmos 1174 3.5 22:24:22 10° NW 22:27:05 46° WSW 22:27:05 46° WSW
Geosat 4.0 22:25:11 29° SE 22:27:48 86° ENE 22:32:52 10° NNW
ALOS 2 3.0 22:26:42 34° SSW 22:28:14 51° W 22:32:32 10° NNW
Meteor 1-25 Rocket 4.3 22:27:54 32° S 22:30:30 67° E 22:36:04 10° NNE
Cosmos 1862 Rocket 4.1 22:28:57 10° N 22:33:14 49° ENE 22:35:02 30° SE
Cosmos 2322 3.7 22:28:35 10° NW 22:34:17 71° WSW 22:37:00 32° SSE
Cosmos 1666 4.3 22:37:23 20° ESE 22:38:22 23° E 22:41:27 10° NE
Meteor 1-19 Rocket 4.2 22:33:47 10° NNW 22:39:35 85° ENE 22:42:20 32° SSE
MTI 3.5 22:36:51 10° NNE 22:39:52 71° ESE 22:39:56 70° ESE
Cosmos 1110 Rocket 4.1 22:35:09 10° NNW 22:40:31 77° ENE 22:43:20 29° SSE
ATLAS 2AS CENTAUR R/B 4.4 22:35:07 10° W 22:42:23 39° NNW 22:49:18 10° NE
USA 267 3.5 22:36:25 10° ENE 22:42:56 72° NNW 22:49:27 10° W
Cosmos 1707 Rocket 3.5 22:39:13 10° NNW 22:43:35 79° W 22:45:02 41° S
SL-27 R/B 3.6 22:43:08 25° WSW 22:44:43 40° WNW 22:48:09 10° NNE
Cosmos 1244 Rocket 4.4 22:42:07 31° S 22:45:17 81° E 22:51:30 10° NNE
NOSS 3-1 (A) 4.0 22:40:01 10° NW 22:47:18 84° SW 22:54:39 15° SE
Cosmos 1331 Rocket 4.0 22:45:36 10° NNW 22:50:55 84° ENE 22:53:34 30° SSE
Cosmos 2297 Rocket 3.9 22:49:53 16° SE 22:52:03 20° E 22:56:01 10° NE
Cosmos 2237 Rocket 2.8 22:47:07 10° NNW 22:52:42 54° NE 22:57:32 14° SE
Cosmos 2084 3.3 22:51:07 33° SW 22:52:55 87° NW 22:57:10 10° NE
COSMOS 2487 2.2 22:52:30 64° S 22:52:57 81° ESE 22:56:21 10° NNE
Cosmos 2322 Rocket 4.0 22:50:02 10° WNW 22:53:29 17° W 22:55:35 14° SW
Cosmos 2285 Rocket 4.2 22:49:45 10° NNW 22:55:54 56° WSW 22:58:54 30° S
Cosmos 2227 Rocket 4.0 23:00:28 14° SE 23:02:53 18° E 23:06:35 10° ENE
NOSS 2-1 (C) 3.6 23:02:14 26° WSW 23:03:48 51° NW 23:07:19 10° NE
SAR-Lupe-2 3.6 23:00:39 10° NNE 23:04:14 75° WNW 23:05:06 48° SW
Cosmos 1805 Rocket 4.4 23:02:35 26° SW 23:04:37 42° WNW 23:08:53 10° N
CZ-4C R/B 4.2 23:02:30 10° NW 23:08:33 39° NNE 23:15:45 10° E
Meteor 2-4 Rocket 3.8 23:02:45 10° NNW 23:08:45 84° ENE 23:12:00 29° SSE
EO 1 Del DPAF 4.0 23:06:43 10° NNE 23:10:15 39° E 23:11:08 34° SE
Cosmos 2242 Rocket 4.4 23:06:09 10° N 23:10:23 43° ENE 23:12:45 23° SE
NOSS 2-1 (D) 3.9 23:09:40 22° W 23:11:29 45° NW 23:14:59 10° NE
CZ-2D R/B 4.0 23:08:33 10° NE 23:12:28 20° E 23:15:47 12° SE
PSLV R/B 3.8 23:10:18 10° NNE 23:15:05 89° E 23:17:06 36° SSW
SL-16 R/B 3.7 23:10:52 10° NNW 23:16:04 36° NE 23:21:15 10° ESE
COSMOS 2428 3.0 23:10:36 10° NW 23:16:05 50° WSW 23:18:23 32° SSW
Cosmos 1500 3.2 23:19:16 44° SSW 23:20:20 71° WNW 23:24:13 10° N
Cosmos 2219 Rocket 2.9 23:17:30 10° NW 23:22:36 37° WSW 23:24:30 29° SSW
Cosmos 1048 Rocket 4.1 23:23:23 28° SW 23:26:03 70° WNW 23:31:12 10° NNE
Meteor 1-5 Rocket 4.3 23:25:24 30° S 23:28:16 71° E 23:34:05 10° NNE
Thor Agena Rocket 3.7 23:25:24 10° N 23:30:25 65° WNW 23:33:00 28° SW
Meteor 2-17 Rocket 4.5 23:27:19 28° S 23:30:37 73° E 23:36:40 10° NNE
NOSS 2-2 (E) 4.3 23:28:18 10° NW 23:33:24 88° NE 23:40:40 10° SE
Cosmos 494 Rocket 4.0 23:33:22 29° SW 23:35:58 73° WNW 23:41:08 10° NNE
COSMOS 2455 3.0 23:35:08 22° SW 23:39:10 75° NW 23:45:14 10° NE
NOSS 0 Rocket 4.1 23:33:21 10° NW 23:39:28 58° WSW 23:42:49 27° S
Cosmos 1302 Rocket 3.9 23:34:53 10° NNW 23:40:06 76° WSW 23:42:56 28° SSE
Cosmos 1470 Rocket 3.5 23:40:37 36° SSW 23:42:17 73° WNW 23:46:38 10° N
Cosmos 1709 Rocket 4.2 23:38:52 26° S 23:42:36 70° E 23:48:56 10° NNE
Cosmos 1743 4.4 23:44:29 17° SE 23:46:23 25° E 23:49:33 10° NNE
Cosmos 1340 Rocket 2.8 23:45:19 38° S 23:46:40 69° E 23:50:35 10° NNE
APEX 4.3 23:44:43 30° SSW 23:47:36 71° ESE 23:54:07 10° NE
Cosmos 1933 Rocket 3.5 23:47:27 35° S 23:49:21 89° E 23:53:51 10° N
Cosmos 2219 3.9 23:46:58 24° SSE 23:49:55 42° ESE 23:55:19 10° NE
Cosmos 1066 Rocket 4.4 23:44:11 10° N 23:50:04 77° ENE 23:54:13 20° SSE
Cosmos 1745 Rocket 4.1 23:46:52 27° SSW 23:50:25 69° WNW 23:56:43 10° N
Okean 3 3.8 23:46:56 10° N 23:51:14 62° ENE 23:53:41 24° SSE
Okean 1-7 2.9 23:47:33 10° NNW 23:51:50 79° W 23:53:38 34° S
Cosmos 1633 Rocket 4.0 23:49:55 24° WSW 23:51:53 37° WNW 23:55:57 10° N
Helios 1A 2.9 23:50:54 31° SSE 23:52:53 85° WSW 23:57:09 10° NNW
